[[{"header":{"parameterUnit":"m.s-1","parameterCategory":2,"la1":30.2991,"la2":30.254,"lo1":-89.0895,"lo2":-89.0444,"dy":0.0017,"dx":0.0017,"nx":28,"ny":28,"refTime":"2024-04-06T21:00:00:Z","depth":"0","parameterNumber":2,"parameterNumberName":"U-component_of_CURRENTS"},"data":[0,0,0,0,0,0,0,0,0,0,0,0,0,0,0,0,0,0,0,0,0,0,0,0,0,0,0,0,0,0,0,0,0,0,0,0,0,0,0,0,0,0,0,0,0,0,0,0,0,0,0,0,0,0,0,0,0,0,-0.292,-0.2921,0,-0.2952,-0.2952,-0.2952,-0.2938,-0.2937,-0.2937,-0.2937,-0.2843,-0.2841,-0.2838,0,0,0,0,0,0,0,0,0,0,0,0,0,-0.2805,-0.2807,-0.292,-0.2921,-0.2922,-0.2952,-0.2952,-0.2952,-0.2938,-0.2937,-0.2937,-0.2937,-0.2844,-0.2841,-0.2838,0,0,0,0,0,0,0,0,0,0,0,0,0,-0.2843,-0.2808,-0.292,-0.2922,-0.2923,-0.2952,-0.2952,-0.2952,-0.2938,-0.2937,-0.2937,-0.2937,-0.2844,-0.2841,-0.2838,-0.2827,0,0,-0.2828,-0.2826,0,0,0,0,0,0,0,0,-0.2841,-0.2847,-0.2921,-0.2922,-0.2923,-0.2945,-0.2877,-0.2905,-0.2938,-0.2927,-0.2937,-0.2936,-0.2869,-0.2864,-0.2865,-0.2822,-0.2818,-0.2827,-0.2825,-0.2824,-0.2823,0,0,0,0,0,0,0,-0.2838,-0.2845,-0.2927,-0.2922,-0.2924,-0.2908,-0.2912,-0.2882,-0.2894,-0.2928,-0.2928,-0.294,-0.2868,-0.2868,-0.2862,-0.2817,-0.2827,-0.2825,-0.2822,-0.2821,-0.2793,-0.2795,0,0,0,0,0,0,-0.2848,-0.2843,-0.2926,-0.2929,-0.2886,-0.2911,-0.2916,-0.2934,-0.2897,-0.2893,-0.294,-0.2939,-0.2874,-0.2866,-0.2859,-0.2883,-0.2824,-0.2821,-0.2819,-0.2792,-0.2794,-0.2795,0,0,0,0,0,0,-0.2846,-0.2856,-0.2925,-0.289,-0.2898,-0.2914,-0.2934,-0.2935,-0.2941,-0.2909,-0.2901,-0.2946,-0.2874,-0.2864,-0.2846,-0.2877,-0.2819,-0.2816,-0.2791,-0.2793,-0.2794,-0.2904,0,0,0,0,0,0,-0.2842,-0.2855,-0.2869,-0.2891,-0.2901,-0.2958,-0.2935,-0.2936,-0.2951,-0.295,-0.2911,-0.2902,-0.2872,-0.2852,-0.2843,-0.2872,-0.2814,-0.2789,-0.2792,-0.2794,-0.2899,-0.291,-0.2919,0,0,0,0,0,-0.2838,-0.2871,-0.287,-0.288,-0.2922,-0.296,-0.2964,-0.2968,-0.2952,-0.2967,-0.2938,-0.2903,-0.2861,-0.285,-0.284,-0.2868,-0.2788,-0.2791,-0.2794,-0.2895,-0.2908,-0.2919,0,0,0,0,0,0,-0.2832,-0.2873,-0.2873,-0.2916,-0.2941,-0.296,-0.2976,-0.2974,-0.2965,-0.2955,-0.2913,-0.2903,-0.2901,-0.2867,-0.2856,-0.2867,-0.2821,-0.2822,-0.2901,-0.2913,-0.2923,-0.2921,-0.2811,0,0,0,0,0,-0.2838,-0.2867,-0.2902,-0.2934,-0.2949,-0.2959,-0.2972,-0.2978,-0.2976,-0.2973,-0.2947,-0.2919,-0.2905,-0.2895,-0.2871,-0.2872,-0.2851,-0.2885,-0.2895,-0.2904,-0.2896,-0.2906,-0.2917,-0.2804,-0.2804,-0.2804,0,0,-0.2844,-0.287,-0.2887,-0.2933,-0.2946,-0.2985,-0.2965,-0.2994,-0.3022,-0.2961,-0.2975,-0.2946,-0.2911,-0.292,-0.2917,-0.2896,-0.2929,-0.2907,-0.2915,-0.2902,-0.291,-0.2921,-0.2931,-0.2806,-0.2806,-0.2806,0,0,-0.2869,-0.2894,-0.2923,-0.2954,-0.2989,-0.3004,-0.3016,-0.3039,-0.3044,-0.3056,-0.3024,-0.3014,-0.2988,-0.298,-0.297,-0.3016,-0.2978,-0.3012,-0.3063,-0.3075,-0.3084,-0.3092,-0.3099,-0.3107,-0.3021,-0.3021,-0.3021,0,-0.2866,-0.2915,-0.2938,-0.2979,-0.3011,-0.3017,-0.306,-0.3076,-0.3088,-0.3097,-0.3072,-0.3056,-0.3019,-0.3044,-0.3057,-0.3039,-0.3036,-0.3025,-0.3089,-0.3096,-0.3102,-0.3107,-0.3114,-0.3027,-0.3026,-0.3025,-0.3025,0,-0.2915,-0.2956,-0.2979,-0.3032,-0.3076,-0.311,-0.3149,-0.3174,-0.3172,-0.3181,-0.3197,-0.3158,-0.3144,-0.3146,-0.3108,-0.3143,-0.3125,-0.31,-0.3062,-0.312,-0.3122,-0.3128,-0.3035,-0.3033,-0.3031,-0.3029,0,0,-0.2868,-0.2988,-0.2987,-0.3032,-0.3104,-0.3143,-0.3204,-0.3255,-0.3292,-0.3289,-0.333,-0.3301,-0.3269,-0.3254,-0.3221,-0.3228,-0.3266,-0.3183,-0.3181,-0.3196,-0.3295,-0.3162,-0.3155,-0.3259,-0.326,-0.3261,-0.3286,0,-0.2879,-0.2967,-0.3032,-0.3116,-0.3161,-0.322,-0.3286,-0.3338,-0.336,-0.34,-0.3376,-0.3385,-0.3318,-0.331,-0.331,-0.3273,-0.3282,-0.3261,-0.3229,-0.3228,-0.3107,-0.3156,-0.3007,-0.3005,-0.3291,-0.3292,-0.3293,0,-0.2874,-0.294,-0.3028,-0.3165,-0.3193,-0.3254,-0.3357,-0.3416,-0.3482,-0.3496,-0.3505,-0.3484,-0.3481,-0.3417,-0.3392,-0.3384,-0.3339,-0.3314,-0.3315,-0.3148,-0.3103,-0.2988,-0.3003,-0.2982,-0.33,-0.3299,-0.3299,0,-0.2799,-0.2928,-0.2999,-0.3043,-0.3199,-0.3255,-0.3333,-0.3427,-0.3484,-0.3543,-0.3573,-0.3576,-0.3558,-0.3527,-0.3424,-0.3425,-0.3394,-0.3395,-0.3243,-0.3234,-0.3074,-0.3047,-0.306,-0.3384,-0.3384,-0.3384,-0.3384,0,-0.277,-0.2818,-0.297,-0.301,-0.3109,-0.3228,-0.3332,-0.3404,-0.351,-0.354,-0.3595,-0.3578,-0.358,-0.3544,-0.3473,-0.3348,-0.3425,-0.325,-0.3229,-0.3107,-0.3085,-0.3028,-0.3047,-0.3385,-0.3385,-0.3384,-0.3384,0,-0.2675,-0.2766,-0.2862,-0.303,-0.3075,-0.3145,-0.3327,-0.3377,-0.3499,-0.3538,-0.3551,-0.3595,-0.3517,-0.3508,-0.3445,-0.3381,-0.3228,-0.3233,-0.3081,-0.3039,-0.2878,-0.2907,-0.2846,-0.277,-0.3111,-0.3107,-0.3105,0,-0.2641,-0.2672,-0.2848,-0.2876,-0.2948,-0.3071,-0.3128,-0.3319,-0.336,-0.348,-0.3454,-0.3461,-0.3366,-0.328,-0.3179,-0.309,-0.3065,-0.2914,-0.2878,-0.2842,-0.2863,-0.2872,-0.2815,-0.2734,-0.2728,-0.2724,-0.272,0,-0.2556,-0.2614,-0.2685,-0.2759,-0.2823,-0.2913,-0.3008,-0.3061,-0.322,-0.325,-0.3209,-0.3172,-0.3122,-0.2944,-0.2877,-0.2791,-0.283,-0.2816,-0.2828,-0.2598,-0.2561,-0.2484,-0.276,-0.268,-0.2684,-0.2687,-0.2689,-0.2691,-0.246,-0.2485,-0.2553,-0.26,-0.2666,-0.2674,-0.267,-0.2755,-0.2781,-0.2773,-0.2862,-0.2774,-0.2749,-0.2612,-0.2556,-0.2439,-0.251,-0.2368,-0.2421,-0.2445,-0.2316,-0.2486,-0.2342,-0.2344,-0.2346,-0.2347,-0.2348,0,-0.2311,-0.2326,-0.2367,-0.2404,-0.2366,-0.2472,-0.2502,-0.2445,-0.2358,-0.2427,-0.2376,-0.2347,-0.222,-0.2256,-0.2186,-0.2101,-0.2076,-0.2047,-0.2059,-0.203,-0.2215,-0.2138,-0.1881,-0.1881,-0.1881,-0.1881,-0.1882,-0.1882,-0.2227,-0.2177,-0.2195,-0.2064,-0.2069,-0.1958,-0.1917,-0.1867,-0.1888,-0.1816,-0.1846,-0.1953,-0.2011,-0.2136,-0.2039,-0.1943,-0.1924,-0.1815,-0.1884,-0.2058,-0.2094,-0.2128,-0.2061,-0.1792,-0.1792,-0.1605,-0.1604,-0.1603]},{"header":{"parameterUnit":"m.s-1","parameterCategory":2,"la1":30.2991,"la2":30.254,"lo1":-89.0895,"lo2":-89.0444,"dy":0.0017,"dx":0.0017,"nx":28,"ny":28,"refTime":"2024-04-06T21:00:00:Z","depth":"0","parameterNumber":3,"parameterNumberName":"V-component_of_CURRENTS"},"data":[0,0,0,0,0,0,0,0,0,0,0,0,0,0,0,0,0,0,0,0,0,0,0,0,0,0,0,0,0,0,0,0,0,0,0,0,0,0,0,0,0,0,0,0,0,0,0,0,0,0,0,0,0,0,0,0,0,0,-0.0324,-0.0323,0,-0.0223,-0.0222,-0.0221,-0.0184,-0.0185,-0.0186,-0.0186,-0.0111,-0.0109,-0.0106,0,0,0,0,0,0,0,0,0,0,0,0,0,-0.0359,-0.0359,-0.0324,-0.0323,-0.0322,-0.0224,-0.0222,-0.022,-0.0184,-0.0185,-0.0186,-0.0186,-0.0112,-0.0109,-0.0106,0,0,0,0,0,0,0,0,0,0,0,0,0,-0.0308,-0.0359,-0.0324,-0.0293,-0.029,-0.0224,-0.0222,-0.022,-0.0184,-0.0185,-0.0186,-0.0187,-0.0113,-0.0109,-0.0105,-0.0067,0,0,-0.0094,-0.0092,0,0,0,0,0,0,0,0,-0.0311,-0.0307,-0.0299,-0.0295,-0.0291,-0.0219,-0.0207,-0.0171,-0.0184,-0.0222,-0.0186,-0.0187,-0.015,-0.0143,-0.012,-0.0063,-0.006,-0.0094,-0.0091,-0.009,-0.0089,0,0,0,0,0,0,0,-0.0315,-0.031,-0.0282,-0.0298,-0.0293,-0.0241,-0.0236,-0.0199,-0.0182,-0.0219,-0.0217,-0.0208,-0.0148,-0.0123,-0.0118,-0.0059,-0.0094,-0.0091,-0.0088,-0.0087,0.0027,0.0028,0,0,0,0,0,0,-0.0337,-0.0314,-0.0286,-0.0279,-0.0305,-0.0241,-0.0235,-0.024,-0.0182,-0.0174,-0.0208,-0.0207,-0.0129,-0.0122,-0.0115,-0.0077,-0.009,-0.0086,-0.0084,0.0026,0.0027,0.0028,0,0,0,0,0,0,-0.0338,-0.0336,-0.029,-0.0295,-0.0286,-0.0241,-0.0246,-0.0237,-0.0217,-0.0173,-0.0166,-0.0197,-0.013,-0.012,-0.0085,-0.0074,-0.0085,-0.0081,0.0025,0.0027,0.0028,0.0006,0,0,0,0,0,0,-0.034,-0.0337,-0.0348,-0.0297,-0.0286,-0.0257,-0.0245,-0.0235,-0.0211,-0.0209,-0.0161,-0.0155,-0.0129,-0.0091,-0.0082,-0.0069,-0.0078,0.0024,0.0026,0.0027,0.0006,0.0007,0.0007,0,0,0,0,0,-0.0342,-0.035,-0.0349,-0.0345,-0.0303,-0.0257,-0.0246,-0.0214,-0.021,-0.0199,-0.0169,-0.0157,-0.0075,-0.0087,-0.0077,-0.0062,0.0024,0.0026,0.0027,0.0006,0.0006,0.0007,0,0,0,0,0,0,-0.0366,-0.0346,-0.0344,-0.0346,-0.031,-0.0252,-0.0239,-0.0216,-0.018,-0.0181,-0.0145,-0.0135,-0.0102,-0.0076,-0.0091,-0.0024,-0.0024,-0.002,-0.0044,-0.0043,-0.0042,-0.0059,-0.0075,0,0,0,0,0,-0.038,-0.0386,-0.0349,-0.035,-0.0337,-0.0289,-0.0268,-0.0243,-0.0204,-0.0188,-0.0151,-0.0114,-0.0082,-0.0061,-0.0027,0.0013,0.004,0.003,0.003,0.003,0.0025,0.0072,0.0076,0.0034,0.0034,0.0034,0,0,-0.039,-0.038,-0.0383,-0.0356,-0.0328,-0.0305,-0.0278,-0.0245,-0.0221,-0.0186,-0.0144,-0.0112,-0.0072,-0.0032,-0.0014,-0.0011,0.0061,0.0033,0.0032,0.0027,0.0074,0.0078,0.0082,0.0035,0.0035,0.0035,0,0,-0.0405,-0.0405,-0.0412,-0.0387,-0.035,-0.0315,-0.031,-0.0251,-0.0224,-0.0178,-0.0151,-0.0111,-0.0054,-0.0019,0.0002,0.0029,0.0058,0.0039,0.0035,0.008,0.0084,0.0087,0.014,0.0148,0.0044,0.0044,0.0044,0,-0.042,-0.0431,-0.0402,-0.0396,-0.0384,-0.0326,-0.0321,-0.0273,-0.0207,-0.0186,-0.0172,-0.0083,-0.0046,-0.0003,0.0008,0.003,0.0059,0.0026,0.008,0.0084,0.0087,0.014,0.0149,0.0043,0.0044,0.0044,0.0044,0,-0.0436,-0.0444,-0.0442,-0.0426,-0.04,-0.0385,-0.0326,-0.0287,-0.0248,-0.0202,-0.0147,-0.0086,-0.004,-0.0014,0.0006,0.0052,0.0066,0.0069,0.0073,0.009,0.0145,0.0155,0.0042,0.0043,0.0043,0.0043,0,0,-0.0484,-0.0463,-0.0467,-0.048,-0.0423,-0.0412,-0.0359,-0.0309,-0.0289,-0.0206,-0.0177,-0.0098,-0.0065,-0.0038,0.0002,0.0051,0.0114,0.0069,0.0072,0.0112,0.0219,0.0239,0.0252,0.0122,0.0123,0.0124,0.0251,0,-0.0513,-0.053,-0.05,-0.0514,-0.0521,-0.0458,-0.0422,-0.0363,-0.03,-0.0248,-0.0165,-0.0124,-0.0074,-0.0058,0.0004,0.0082,0.0137,0.0079,0.0204,0.0208,0.0216,0.0263,0.0277,0.0392,0.0261,0.0263,0.0264,0,-0.0553,-0.0561,-0.0583,-0.0585,-0.0582,-0.057,-0.0527,-0.0486,-0.0382,-0.0335,-0.0257,-0.0191,-0.0096,-0.0069,0.0092,0.0051,0.0129,0.0196,0.0203,0.0232,0.0246,0.0353,0.0415,0.0572,0.028,0.0279,0.0277,0,-0.0629,-0.0633,-0.0665,-0.0663,-0.0632,-0.063,-0.0606,-0.0516,-0.0493,-0.0391,-0.0357,-0.0233,-0.017,-0.0051,0.0109,0.0095,0.0282,0.028,0.0377,0.038,0.0422,0.0426,0.0641,0.0381,0.0381,0.0381,0.038,0,-0.069,-0.0722,-0.0711,-0.0731,-0.078,-0.0715,-0.0726,-0.0679,-0.0594,-0.0563,-0.0419,-0.0361,-0.0165,-0.0027,0.0101,0.0285,0.0283,0.0388,0.0417,0.0417,0.0419,0.0579,0.0637,0.0385,0.0384,0.0383,0.0383,0,-0.0778,-0.0762,-0.0819,-0.0814,-0.0823,-0.086,-0.0837,-0.0824,-0.0725,-0.0675,-0.0647,-0.045,-0.0261,-0.0059,0.0154,0.0278,0.0533,0.0497,0.0491,0.0516,0.0732,0.0786,0.1,0.1079,0.0625,0.0626,0.0628,0,-0.0822,-0.0855,-0.0913,-0.0957,-0.0965,-0.0992,-0.0996,-0.0917,-0.0888,-0.0726,-0.0708,-0.0504,-0.0353,-0.0009,0.024,0.0487,0.0596,0.0642,0.0617,0.0765,0.0846,0.0877,0.0929,0.0678,0.068,0.0681,0.0682,0,-0.0911,-0.0937,-0.0988,-0.1079,-0.112,-0.1156,-0.1148,-0.1149,-0.1019,-0.0946,-0.0804,-0.0669,-0.0306,0.0011,0.0353,0.0491,0.0751,0.0671,0.0835,0.0919,0.0957,0.1038,0.0579,0.0692,0.0691,0.069,0.069,0.0689,-0.0983,-0.1058,-0.1119,-0.1206,-0.1255,-0.1284,-0.1295,-0.1248,-0.1201,-0.1049,-0.0905,-0.0662,-0.017,0.0316,0.0497,0.0887,0.0841,0.0988,0.1047,0.107,0.1132,0.0694,0.0823,0.0823,0.0823,0.0823,0.0823,0,-0.1052,-0.1126,-0.1226,-0.1311,-0.1361,-0.136,-0.1361,-0.1327,-0.1258,-0.1096,-0.0935,-0.041,0.0066,0.0518,0.1088,0.1281,0.1312,0.1363,0.1429,0.1468,0.1103,0.1091,0.127,0.127,0.127,0.127,0.127,0.1269,-0.109,-0.1199,-0.1252,-0.1359,-0.1408,-0.143,-0.1422,-0.1373,-0.1257,-0.0984,-0.0688,-0.0446,0.0231,0.1164,0.1676,0.1694,0.1856,0.1807,0.1911,0.1676,0.1646,0.1617,0.1623,0.1911,0.1911,0.2251,0.2255,0.2258]}],[{"header":{"parameterUnit":"m.s-1","parameterCategory":2,"la1":30.2991,"la2":30.254,"lo1":-89.0895,"lo2":-89.0444,"dy":0.0017,"dx":0.0017,"nx":28,"ny":28,"refTime":"2024-04-06T21:00:00:Z","depth":"2","parameterNumber":2,"parameterNumberName":"U-component_of_CURRENTS"},"data":[0,0,0,0,0,0,0,0,0,0,0,0,0,0,0,0,0,0,0,0,0,0,0,0,0,0,0,0,0,0,0,0,0,0,0,0,0,0,0,0,0,0,0,0,0,0,0,0,0,0,0,0,0,0,0,0,0,0,-0.2629,-0.2629,0,-0.2643,-0.2643,-0.2642,-0.2615,-0.2615,-0.2615,-0.2615,-0.2573,-0.2572,-0.257,0,0,0,0,0,0,0,0,0,0,0,0,0,-0.24,-0.2404,-0.2628,-0.263,-0.2631,-0.2643,-0.2643,-0.2642,-0.2615,-0.2615,-0.2615,-0.2615,-0.2573,-0.2572,-0.257,0,0,0,0,0,0,0,0,0,0,0,0,0,-0.2456,-0.2406,-0.2628,-0.2626,-0.2627,-0.2643,-0.2643,-0.2642,-0.2615,-0.2615,-0.2615,-0.2615,-0.2573,-0.2572,-0.257,-0.256,0,0,-0.2565,-0.2564,0,0,0,0,0,0,0,0,-0.2453,-0.2464,-0.2625,-0.2626,-0.2627,-0.2636,-0.2547,-0.2615,-0.2615,-0.2609,-0.2615,-0.2615,-0.2595,-0.2591,-0.2581,-0.2558,-0.2556,-0.2565,-0.2564,-0.2563,-0.2562,0,0,0,0,0,0,0,-0.245,-0.2462,-0.2624,-0.2627,-0.2628,-0.2564,-0.2573,-0.2558,-0.2593,-0.261,-0.2611,-0.2628,-0.2594,-0.2583,-0.258,-0.2555,-0.2565,-0.2563,-0.2562,-0.2561,-0.2576,-0.2578,0,0,0,0,0,0,-0.2478,-0.246,-0.2624,-0.2626,-0.2549,-0.257,-0.2579,-0.2625,-0.2595,-0.2594,-0.2628,-0.2627,-0.2586,-0.2582,-0.2578,-0.2635,-0.2563,-0.2561,-0.256,-0.2575,-0.2577,-0.2578,0,0,0,0,0,0,-0.2473,-0.2494,-0.2624,-0.2548,-0.2562,-0.2576,-0.2627,-0.2626,-0.2631,-0.2611,-0.2606,-0.2638,-0.2586,-0.2581,-0.258,-0.263,-0.2561,-0.2559,-0.2573,-0.2576,-0.2578,-0.2703,0,0,0,0,0,0,-0.2467,-0.2492,-0.2521,-0.2552,-0.2568,-0.2656,-0.2628,-0.2626,-0.2646,-0.2644,-0.2617,-0.2612,-0.2585,-0.2582,-0.2578,-0.2627,-0.2558,-0.2572,-0.2574,-0.2577,-0.2697,-0.2709,-0.2719,0,0,0,0,0,-0.2459,-0.2508,-0.2523,-0.2542,-0.2613,-0.2658,-0.2659,-0.2659,-0.2647,-0.266,-0.2636,-0.2614,-0.2597,-0.2582,-0.2576,-0.2626,-0.257,-0.2574,-0.2577,-0.2692,-0.2707,-0.2719,0,0,0,0,0,0,-0.2423,-0.2512,-0.2528,-0.2603,-0.2638,-0.2658,-0.2668,-0.2672,-0.2662,-0.2659,-0.2624,-0.2618,-0.264,-0.2609,-0.2593,-0.2637,-0.2583,-0.2586,-0.2673,-0.2686,-0.2698,-0.2696,-0.2556,0,0,0,0,0,-0.2434,-0.2494,-0.2558,-0.2614,-0.2636,-0.2652,-0.2666,-0.268,-0.2685,-0.268,-0.2669,-0.2652,-0.2646,-0.2646,-0.2633,-0.2651,-0.2625,-0.2681,-0.2692,-0.2702,-0.2696,-0.2707,-0.2719,-0.2589,-0.2589,-0.2589,0,0,-0.2438,-0.2492,-0.2527,-0.2609,-0.2628,-0.2679,-0.2658,-0.2701,-0.2739,-0.2677,-0.2709,-0.269,-0.2658,-0.2683,-0.2691,-0.2666,-0.2728,-0.2706,-0.2715,-0.2703,-0.2712,-0.2725,-0.2736,-0.2591,-0.2591,-0.259,0,0,-0.2467,-0.2523,-0.2577,-0.2621,-0.2681,-0.2699,-0.2722,-0.2763,-0.2773,-0.2801,-0.2774,-0.278,-0.2769,-0.2767,-0.2758,-0.2819,-0.2786,-0.2827,-0.2886,-0.2899,-0.291,-0.2919,-0.2918,-0.2925,-0.2835,-0.2835,-0.2835,0,-0.246,-0.2548,-0.2593,-0.2655,-0.2698,-0.2718,-0.2779,-0.2798,-0.2834,-0.2852,-0.2827,-0.2835,-0.2807,-0.2844,-0.2862,-0.2847,-0.2841,-0.2842,-0.2915,-0.2923,-0.2931,-0.2927,-0.2934,-0.2842,-0.2841,-0.284,-0.284,0,-0.2518,-0.2599,-0.2631,-0.2725,-0.2778,-0.283,-0.2888,-0.2928,-0.2938,-0.2954,-0.2992,-0.2957,-0.2955,-0.2966,-0.2924,-0.298,-0.2955,-0.293,-0.2885,-0.2952,-0.2943,-0.2948,-0.2851,-0.2849,-0.2847,-0.2845,0,0,-0.2472,-0.2638,-0.2649,-0.2717,-0.2821,-0.2873,-0.2953,-0.3023,-0.3072,-0.3088,-0.3138,-0.3126,-0.3101,-0.3088,-0.3061,-0.3072,-0.3116,-0.3026,-0.3024,-0.3031,-0.3142,-0.2988,-0.2978,-0.3113,-0.3114,-0.3115,-0.3121,0,-0.2491,-0.2612,-0.2702,-0.2826,-0.2893,-0.2975,-0.3055,-0.3129,-0.3157,-0.3209,-0.3193,-0.321,-0.3152,-0.315,-0.3157,-0.3116,-0.3134,-0.3116,-0.3069,-0.3067,-0.2927,-0.298,-0.2757,-0.2731,-0.3126,-0.3127,-0.3127,0,-0.2504,-0.2589,-0.2699,-0.2896,-0.2935,-0.3013,-0.3141,-0.3218,-0.3299,-0.3321,-0.3339,-0.3318,-0.3322,-0.3263,-0.3239,-0.3233,-0.3195,-0.3169,-0.3168,-0.2977,-0.2921,-0.2723,-0.2725,-0.3135,-0.3135,-0.3134,-0.3134,0,-0.2418,-0.2601,-0.268,-0.2738,-0.2938,-0.3014,-0.3117,-0.3233,-0.3295,-0.3372,-0.339,-0.3413,-0.3381,-0.3367,-0.3255,-0.3267,-0.3219,-0.323,-0.307,-0.3059,-0.283,-0.2795,-0.3236,-0.3236,-0.3236,-0.3236,-0.3236,0,-0.2399,-0.2476,-0.2644,-0.2696,-0.2817,-0.2978,-0.3102,-0.3203,-0.332,-0.3345,-0.3414,-0.3384,-0.3401,-0.3352,-0.3298,-0.3159,-0.3242,-0.3078,-0.3049,-0.2866,-0.2836,-0.3146,-0.3135,-0.3237,-0.3236,-0.3236,-0.3236,0,-0.2303,-0.2405,-0.2521,-0.2718,-0.278,-0.2863,-0.3089,-0.314,-0.3279,-0.3306,-0.3318,-0.3362,-0.3278,-0.3272,-0.3222,-0.3162,-0.3087,-0.3023,-0.2792,-0.2734,-0.2929,-0.2926,-0.2897,-0.2892,-0.2887,-0.2884,-0.288,0,-0.2273,-0.2302,-0.2491,-0.2529,-0.2616,-0.2767,-0.2837,-0.3064,-0.3094,-0.3221,-0.3172,-0.3175,-0.3077,-0.2985,-0.2901,-0.2825,-0.2917,-0.2584,-0.2566,-0.2919,-0.2895,-0.2898,-0.2901,-0.2331,-0.2324,-0.2318,-0.2313,0,-0.2195,-0.2236,-0.2318,-0.2388,-0.2464,-0.2569,-0.2687,-0.272,-0.29,-0.2928,-0.2883,-0.2851,-0.2789,-0.2589,-0.2526,-0.2447,-0.2589,-0.2456,-0.2883,-0.2436,-0.2381,-0.2359,-0.2381,-0.2259,-0.2264,-0.2268,-0.2271,-0.2273,-0.2106,-0.2123,-0.2184,-0.2232,-0.2302,-0.2303,-0.2321,-0.2401,-0.243,-0.2425,-0.2509,-0.2412,-0.2424,-0.2197,-0.2086,-0.2036,-0.222,-0.2147,-0.2168,-0.2196,-0.2113,-0.2051,-0.1852,-0.1855,-0.1857,-0.186,-0.1862,0,-0.1967,-0.1979,-0.2016,-0.2057,-0.2016,-0.2126,-0.2146,-0.2104,-0.2026,-0.2064,-0.2035,-0.1833,-0.1724,-0.1761,-0.1612,-0.1601,-0.1625,-0.1529,-0.1565,-0.1617,-0.1664,-0.1558,-0.1148,-0.1146,-0.1145,-0.1143,0,0,-0.1897,-0.1847,-0.1851,-0.1736,-0.1747,-0.1657,-0.1619,-0.157,-0.1576,-0.1473,-0.1451,-0.159,-0.1676,-0.1396,-0.1342,-0.1222,-0.1406,-0.116,-0.1724,-0.1814,-0.1859,-0.2003,-0.1894,0,0,0,0,0]},{"header":{"parameterUnit":"m.s-1","parameterCategory":2,"la1":30.2991,"la2":30.254,"lo1":-89.0895,"lo2":-89.0444,"dy":0.0017,"dx":0.0017,"nx":28,"ny":28,"refTime":"2024-04-06T21:00:00:Z","depth":"2","parameterNumber":3,"parameterNumberName":"V-component_of_CURRENTS"},"data":[0,0,0,0,0,0,0,0,0,0,0,0,0,0,0,0,0,0,0,0,0,0,0,0,0,0,0,0,0,0,0,0,0,0,0,0,0,0,0,0,0,0,0,0,0,0,0,0,0,0,0,0,0,0,0,0,0,0,-0.0242,-0.0241,0,-0.0138,-0.0136,-0.0135,-0.0093,-0.0094,-0.0094,-0.0095,-0.0032,-0.003,-0.0027,0,0,0,0,0,0,0,0,0,0,0,0,0,-0.0255,-0.0255,-0.0242,-0.0241,-0.024,-0.0138,-0.0136,-0.0134,-0.0093,-0.0094,-0.0095,-0.0095,-0.0033,-0.003,-0.0027,0,0,0,0,0,0,0,0,0,0,0,0,0,-0.0207,-0.0256,-0.0242,-0.021,-0.0206,-0.0138,-0.0136,-0.0134,-0.0093,-0.0094,-0.0095,-0.0096,-0.0033,-0.003,-0.0027,0.0012,0,0,-0.0017,-0.0015,0,0,0,0,0,0,0,0,-0.021,-0.0206,-0.0215,-0.0212,-0.0208,-0.0133,-0.0118,-0.0088,-0.0093,-0.0132,-0.0095,-0.0096,-0.0071,-0.0065,-0.0037,0.0015,0.0018,-0.0016,-0.0014,-0.0013,-0.0012,0,0,0,0,0,0,0,-0.0213,-0.0209,-0.0197,-0.0214,-0.021,-0.0149,-0.0144,-0.0111,-0.0096,-0.0129,-0.0126,-0.012,-0.0069,-0.004,-0.0036,0.0018,-0.0016,-0.0013,-0.0011,-0.001,0.0093,0.0093,0,0,0,0,0,0,-0.0241,-0.0213,-0.02,-0.0194,-0.0215,-0.0149,-0.0143,-0.0153,-0.0095,-0.0088,-0.012,-0.0119,-0.0046,-0.004,-0.0033,-0.0004,-0.0013,-0.001,-0.0008,0.0092,0.0093,0.0093,0,0,0,0,0,0,-0.0241,-0.0241,-0.0204,-0.0203,-0.0195,-0.015,-0.0159,-0.015,-0.0128,-0.0088,-0.0081,-0.0109,-0.0046,-0.0038,-0.0006,-0.0001,-0.0008,-0.0005,0.0091,0.0092,0.0093,0.0066,0,0,0,0,0,0,-0.0242,-0.0242,-0.0254,-0.0206,-0.0196,-0.0171,-0.0158,-0.0148,-0.0125,-0.0123,-0.0077,-0.0071,-0.0046,-0.0011,-0.0002,0.0003,-0.0003,0.009,0.0091,0.0093,0.0066,0.0067,0.0067,0,0,0,0,0,-0.0244,-0.0254,-0.0255,-0.0253,-0.0216,-0.0171,-0.016,-0.0127,-0.0124,-0.0111,-0.0081,-0.0073,0.0003,-0.0007,0.0003,0.0009,0.0089,0.0091,0.0093,0.0066,0.0067,0.0067,0,0,0,0,0,0,-0.0262,-0.025,-0.025,-0.0257,-0.0223,-0.0166,-0.0153,-0.013,-0.0092,-0.0096,-0.006,-0.0051,-0.0023,0.0001,-0.0012,0.0044,0.0047,0.005,0.0024,0.0024,0.0024,0.0009,0.0,0,0,0,0,0,-0.0275,-0.0286,-0.0254,-0.026,-0.0248,-0.0202,-0.018,-0.0158,-0.012,-0.0104,-0.0069,-0.0035,-0.0005,0.0013,0.0045,0.008,0.0108,0.009,0.009,0.009,0.0086,0.0133,0.0137,0.0099,0.0099,0.0099,0,0,-0.0286,-0.028,-0.0287,-0.0265,-0.0239,-0.0219,-0.0191,-0.0163,-0.0142,-0.0104,-0.0066,-0.0035,0.0004,0.0039,0.0054,0.0058,0.0119,0.0092,0.0091,0.0087,0.0135,0.0139,0.0142,0.01,0.01,0.0099,0,0,-0.0306,-0.0308,-0.0321,-0.0297,-0.0266,-0.0232,-0.023,-0.0174,-0.0147,-0.0105,-0.0078,-0.0042,0.0012,0.0045,0.0066,0.0088,0.0114,0.0094,0.0087,0.0133,0.0136,0.0139,0.019,0.0198,0.0098,0.0098,0.0098,0,-0.0322,-0.0339,-0.0312,-0.031,-0.03,-0.0245,-0.0244,-0.0197,-0.0136,-0.0116,-0.0102,-0.0017,0.0017,0.0058,0.0066,0.0087,0.0116,0.008,0.0131,0.0135,0.0139,0.019,0.0199,0.0097,0.0097,0.0097,0.0097,0,-0.0345,-0.0358,-0.0359,-0.035,-0.0325,-0.0315,-0.0258,-0.0223,-0.0185,-0.0141,-0.0089,-0.0028,0.0016,0.0039,0.0061,0.0102,0.0116,0.0121,0.0126,0.0141,0.0195,0.0204,0.0095,0.0095,0.0096,0.0096,0,0,-0.0399,-0.0384,-0.0389,-0.0405,-0.0352,-0.0345,-0.0296,-0.0249,-0.0232,-0.0153,-0.0124,-0.0048,-0.0016,0.001,0.0049,0.0099,0.0159,0.0117,0.012,0.0159,0.0263,0.0264,0.0275,0.0168,0.0169,0.017,0.0294,0,-0.0435,-0.0459,-0.043,-0.0451,-0.0461,-0.04,-0.0366,-0.0311,-0.0248,-0.0198,-0.0116,-0.0075,-0.0026,-0.0011,0.005,0.0128,0.0181,0.0125,0.0251,0.0255,0.0247,0.0285,0.0255,0.0362,0.0304,0.0305,0.0306,0,-0.048,-0.0492,-0.052,-0.0527,-0.0527,-0.0518,-0.0478,-0.0439,-0.0336,-0.0288,-0.0212,-0.0145,-0.0052,-0.0023,0.0135,0.0094,0.0172,0.024,0.0246,0.0259,0.0274,0.0338,0.0382,0.0323,0.0322,0.0321,0.0319,0,-0.0556,-0.0569,-0.0604,-0.0603,-0.0578,-0.058,-0.0559,-0.0471,-0.0449,-0.0346,-0.0316,-0.019,-0.0131,-0.0009,0.0143,0.0138,0.0312,0.0323,0.0402,0.0404,0.041,0.0409,0.0423,0.0423,0.0423,0.0422,0.0422,0,-0.0618,-0.0654,-0.065,-0.0673,-0.0726,-0.0665,-0.068,-0.0635,-0.0552,-0.0522,-0.038,-0.0327,-0.0127,0.0003,0.0134,0.0305,0.0311,0.041,0.0437,0.0401,0.0398,0.0383,0.0377,0.0427,0.0426,0.0425,0.0424,0,-0.0699,-0.069,-0.075,-0.0755,-0.0767,-0.0806,-0.0792,-0.0781,-0.0688,-0.064,-0.0613,-0.0424,-0.0241,-0.0043,0.0171,0.0287,0.0446,0.0495,0.0444,0.0462,0.0513,0.0504,0.0614,0.0615,0.0616,0.0616,0.0617,0,-0.074,-0.0773,-0.0839,-0.0887,-0.0899,-0.0933,-0.0941,-0.0871,-0.0843,-0.0697,-0.0679,-0.0488,-0.0343,-0.0017,0.0222,0.0465,0.0466,0.0565,0.0549,0.0518,0.0534,0.0523,0.0513,0.0561,0.0561,0.0561,0.0561,0,-0.0821,-0.0848,-0.0901,-0.0996,-0.1045,-0.1087,-0.1086,-0.1086,-0.0967,-0.0901,-0.0766,-0.064,-0.0308,-0.0023,0.0289,0.042,0.0528,0.0573,0.057,0.0501,0.0474,0.0487,0.0478,0.0562,0.0562,0.0562,0.0562,0.0562,-0.0886,-0.0956,-0.102,-0.1109,-0.1167,-0.1198,-0.1211,-0.1168,-0.1122,-0.0975,-0.0847,-0.0622,-0.0331,0.0117,0.0343,0.0558,0.0554,0.0618,0.0615,0.0613,0.0569,0.0543,0.0637,0.0638,0.0638,0.0638,0.0638,0,-0.0944,-0.1016,-0.1116,-0.1206,-0.1258,-0.1267,-0.1269,-0.1232,-0.1161,-0.101,-0.0855,-0.0533,-0.0204,0.0089,0.0433,0.0631,0.062,0.0655,0.0616,0.0613,0.0611,0.0565,0.0634,0.0635,0.0635,0.0636,0,0,-0.0978,-0.108,-0.1131,-0.124,-0.1294,-0.1323,-0.1314,-0.1257,-0.1145,-0.0988,-0.0811,-0.0562,-0.0199,0.005,0.0307,0.0486,0.049,0.049,0.0472,0.0392,0.0387,0.0567,0.049,0,0,0,0,0]}],[{"header":{"parameterUnit":"m.s-1","parameterCategory":2,"la1":30.2991,"la2":30.254,"lo1":-89.0895,"lo2":-89.0444,"dy":0.0017,"dx":0.0017,"nx":28,"ny":28,"refTime":"2024-04-06T21:00:00:Z","depth":"4","parameterNumber":2,"parameterNumberName":"U-component_of_CURRENTS"},"data":[0,0,0,0,0,0,0,0,0,0,0,0,0,0,0,0,0,0,0,0,0,0,0,0,0,0,0,0,0,0,0,0,0,0,0,0,0,0,0,0,0,0,0,0,0,0,0,0,0,0,0,0,0,0,0,0,0,0,-0.0628,-0.0627,0,-0.0665,-0.0666,-0.0667,-0.0737,-0.0737,-0.0738,-0.0739,-0.0905,-0.0908,-0.0912,0,0,0,0,0,0,0,0,0,0,0,0,0,-0.0826,-0.0821,-0.0628,-0.0627,-0.0627,-0.0665,-0.0666,-0.0667,-0.0736,-0.0737,-0.0738,-0.0739,-0.0904,-0.0908,-0.0912,0,0,0,0,0,0,0,0,0,0,0,0,0,-0.0795,-0.082,-0.0628,-0.0662,-0.0665,-0.0665,-0.0666,-0.0667,-0.0736,-0.0737,-0.0739,-0.074,-0.0902,-0.0908,-0.0913,-0.0925,0,0,-0.093,-0.0932,0,0,0,0,0,0,0,0,-0.0796,-0.0788,-0.0657,-0.0659,-0.0663,-0.0692,-0.0797,-0.0758,-0.0736,-0.0716,-0.0739,-0.074,-0.084,-0.0851,-0.0863,-0.0932,-0.094,-0.0931,-0.0934,-0.0936,-0.0938,0,0,0,0,0,0,0,-0.0798,-0.0788,-0.0649,-0.0656,-0.066,-0.0747,-0.0742,-0.079,-0.0779,-0.0718,-0.0721,-0.0715,-0.0844,-0.0857,-0.0868,-0.0942,-0.093,-0.0935,-0.0939,-0.0941,-0.122,-0.1224,0,0,0,0,0,0,-0.0767,-0.0788,-0.0648,-0.0649,-0.0726,-0.0741,-0.0736,-0.0686,-0.0776,-0.0787,-0.0714,-0.0718,-0.0847,-0.0861,-0.0874,-0.1071,-0.0936,-0.0941,-0.0945,-0.1216,-0.1221,-0.1225,0,0,0,0,0,0,-0.077,-0.0752,-0.0646,-0.0719,-0.071,-0.0734,-0.0679,-0.0686,-0.0722,-0.077,-0.0786,-0.0744,-0.0849,-0.0866,-0.0973,-0.1071,-0.0944,-0.0949,-0.1211,-0.1217,-0.1223,-0.1351,0,0,0,0,0,0,-0.0775,-0.0752,-0.0768,-0.0714,-0.0704,-0.0668,-0.0677,-0.0686,-0.0712,-0.0718,-0.08,-0.0815,-0.0851,-0.0965,-0.0978,-0.1076,-0.0953,-0.1206,-0.1214,-0.1221,-0.1342,-0.1361,-0.1377,0,0,0,0,0,-0.0781,-0.0754,-0.0766,-0.0753,-0.0701,-0.0668,-0.0674,-0.0701,-0.0712,-0.0737,-0.0814,-0.0814,-0.1024,-0.0972,-0.0987,-0.1089,-0.1202,-0.1212,-0.122,-0.1334,-0.1357,-0.1377,0,0,0,0,0,0,-0.0856,-0.0757,-0.0769,-0.0719,-0.0716,-0.0678,-0.0691,-0.0709,-0.0783,-0.0804,-0.0854,-0.0876,-0.1021,-0.1024,-0.0966,-0.1193,-0.1117,-0.113,-0.1199,-0.1221,-0.1238,-0.1234,-0.0958,0,0,0,0,0,-0.0874,-0.0827,-0.0771,-0.0747,-0.0721,-0.0716,-0.0725,-0.0741,-0.0766,-0.0799,-0.0873,-0.0959,-0.1064,-0.1114,-0.1198,-0.1298,-0.1302,-0.1378,-0.1396,-0.141,-0.142,-0.1513,-0.1539,-0.1255,-0.1255,-0.1255,0,0,-0.0909,-0.0842,-0.0829,-0.0764,-0.0743,-0.0739,-0.0724,-0.0718,-0.0804,-0.0807,-0.0962,-0.1027,-0.1107,-0.1252,-0.1314,-0.1268,-0.1495,-0.1422,-0.1434,-0.1435,-0.1525,-0.1553,-0.1577,-0.1261,-0.126,-0.1259,0,0,-0.0928,-0.0866,-0.0845,-0.0812,-0.078,-0.0778,-0.0777,-0.0776,-0.0866,-0.1003,-0.1049,-0.1165,-0.1312,-0.1394,-0.1452,-0.1607,-0.1593,-0.1639,-0.1722,-0.1813,-0.1836,-0.1857,-0.1895,-0.1918,-0.1639,-0.1639,-0.164,0,-0.0995,-0.0909,-0.0852,-0.0811,-0.0801,-0.0789,-0.0796,-0.0877,-0.0959,-0.1053,-0.1081,-0.1337,-0.1395,-0.157,-0.1638,-0.1652,-0.1673,-0.1632,-0.1835,-0.1855,-0.1874,-0.1908,-0.1932,-0.1647,-0.1646,-0.1645,-0.1644,0,-0.099,-0.093,-0.0886,-0.0838,-0.0865,-0.0822,-0.0898,-0.0963,-0.1071,-0.1198,-0.1429,-0.1536,-0.1678,-0.173,-0.1741,-0.1913,-0.1875,-0.1852,-0.1773,-0.191,-0.1937,-0.196,-0.1657,-0.1654,-0.1652,-0.165,0,0,-0.1053,-0.0917,-0.0902,-0.0873,-0.0849,-0.0852,-0.0973,-0.109,-0.1185,-0.1394,-0.1584,-0.1794,-0.1865,-0.1932,-0.1971,-0.2048,-0.2202,-0.2008,-0.2009,-0.2032,-0.2376,-0.208,-0.2075,-0.2214,-0.2218,-0.2222,-0.2337,0,-0.1054,-0.1019,-0.0947,-0.0929,-0.0911,-0.0888,-0.1035,-0.1183,-0.1317,-0.151,-0.1723,-0.1927,-0.1952,-0.2019,-0.2128,-0.22,-0.2268,-0.2171,-0.2251,-0.2252,-0.1962,-0.2094,-0.2238,-0.2354,-0.2359,-0.2362,-0.2365,0,-0.1039,-0.1027,-0.1043,-0.0982,-0.0974,-0.1016,-0.1131,-0.1255,-0.1513,-0.1634,-0.1844,-0.1991,-0.2221,-0.219,-0.2422,-0.2361,-0.2381,-0.2409,-0.2414,-0.2105,-0.1998,-0.2191,-0.2405,-0.2401,-0.2399,-0.2396,-0.2393,0,-0.1129,-0.1032,-0.1065,-0.1034,-0.1045,-0.1085,-0.1153,-0.1358,-0.1463,-0.1727,-0.1813,-0.2115,-0.2254,-0.2405,-0.2437,-0.2475,-0.2598,-0.2661,-0.2409,-0.2387,-0.2559,-0.2535,-0.2778,-0.2777,-0.2777,-0.2777,-0.2777,0,-0.1079,-0.1062,-0.1113,-0.1095,-0.1189,-0.1228,-0.1341,-0.1405,-0.1587,-0.1715,-0.193,-0.2019,-0.2304,-0.2384,-0.2473,-0.2464,-0.2634,-0.2441,-0.2409,-0.2609,-0.259,-0.2574,-0.2548,-0.2781,-0.278,-0.2779,-0.2779,0,-0.1084,-0.1097,-0.109,-0.1154,-0.1203,-0.1308,-0.1381,-0.1431,-0.1614,-0.175,-0.1838,-0.2011,-0.2135,-0.2265,-0.2432,-0.2428,-0.2479,-0.2381,-0.2515,-0.2486,-0.2238,-0.2219,-0.2302,-0.2293,-0.2285,-0.2279,-0.2273,0,-0.1057,-0.1087,-0.1158,-0.1182,-0.118,-0.1321,-0.1391,-0.1499,-0.152,-0.1694,-0.1745,-0.1875,-0.1981,-0.2025,-0.2158,-0.2272,-0.2217,-0.2225,-0.2345,-0.2234,-0.2198,-0.219,-0.2182,-0.2261,-0.2259,-0.2257,-0.2255,0,-0.1006,-0.1054,-0.1056,-0.1166,-0.1208,-0.1235,-0.1332,-0.1351,-0.1467,-0.1585,-0.1635,-0.1711,-0.1783,-0.1923,-0.1881,-0.1977,-0.227,-0.2147,-0.217,-0.2284,-0.2185,-0.2154,-0.2156,-0.2228,-0.2232,-0.2234,-0.2236,0,-0.0967,-0.0975,-0.1018,-0.1082,-0.1132,-0.1151,-0.1212,-0.1235,-0.1301,-0.1477,-0.1463,-0.1621,-0.1734,-0.1753,-0.1761,-0.1777,-0.1881,-0.1908,-0.1946,-0.1977,-0.1807,-0.163,-0.1493,0,0,0,0,0,-0.0923,-0.0913,-0.0927,-0.0976,-0.1004,-0.105,-0.1135,-0.1188,-0.1312,-0.1301,-0.1389,-0.1445,-0.1512,-0.1578,-0.1559,-0.1666,-0.188,-0.1635,-0.1929,-0.2078,-0.2109,-0.1933,0,0,0,0,0,0,-0.088,-0.0894,-0.089,-0.0875,-0.0884,-0.0917,-0.0973,-0.1058,-0.1078,-0.1212,-0.126,-0.1351,-0.1438,-0.1506,-0.1528,-0.1545,-0.1704,-0.171,-0.1706,-0.206,-0.2088,-0.2114,-0.1943,0,0,0,0,0]},{"header":{"parameterUnit":"m.s-1","parameterCategory":2,"la1":30.2991,"la2":30.254,"lo1":-89.0895,"lo2":-89.0444,"dy":0.0017,"dx":0.0017,"nx":28,"ny":28,"refTime":"2024-04-06T21:00:00:Z","depth":"4","parameterNumber":3,"parameterNumberName":"V-component_of_CURRENTS"},"data":[0,0,0,0,0,0,0,0,0,0,0,0,0,0,0,0,0,0,0,0,0,0,0,0,0,0,0,0,0,0,0,0,0,0,0,0,0,0,0,0,0,0,0,0,0,0,0,0,0,0,0,0,0,0,0,0,0,0,-0.0135,-0.0136,0,-0.0137,-0.0137,-0.0137,-0.0095,-0.0095,-0.0094,-0.0093,-0.003,-0.0029,-0.0029,0,0,0,0,0,0,0,0,0,0,0,0,0,-0.0099,-0.01,-0.0135,-0.0136,-0.0136,-0.0138,-0.0137,-0.0137,-0.0096,-0.0095,-0.0093,-0.0092,-0.0031,-0.003,-0.0028,0,0,0,0,0,0,0,0,0,0,0,0,0,-0.0107,-0.01,-0.0135,-0.0118,-0.0116,-0.0138,-0.0137,-0.0137,-0.0096,-0.0094,-0.0093,-0.0092,-0.0031,-0.003,-0.0028,-0.0046,0,0,-0.0024,-0.0024,0,0,0,0,0,0,0,0,-0.0106,-0.0108,-0.012,-0.0119,-0.0117,-0.0117,-0.0102,-0.0104,-0.0096,-0.01,-0.0093,-0.0091,-0.0056,-0.0053,-0.0053,-0.0043,-0.004,-0.0024,-0.0023,-0.0023,-0.0022,0,0,0,0,0,0,0,-0.0106,-0.0107,-0.0133,-0.012,-0.0119,-0.0111,-0.011,-0.0102,-0.0082,-0.01,-0.0098,-0.0103,-0.0055,-0.0054,-0.0051,-0.0039,-0.0024,-0.0023,-0.0022,-0.0022,0.0033,0.0033,0,0,0,0,0,0,-0.0113,-0.0107,-0.0133,-0.0134,-0.0112,-0.0113,-0.0112,-0.0116,-0.0083,-0.0079,-0.0104,-0.0101,-0.0057,-0.0052,-0.0048,0.0028,-0.0023,-0.0022,-0.0021,0.0032,0.0033,0.0033,0,0,0,0,0,0,-0.0112,-0.0115,-0.0133,-0.0123,-0.0125,-0.0115,-0.012,-0.0117,-0.0109,-0.0088,-0.0081,-0.0099,-0.0056,-0.005,-0.0028,0.0027,-0.0021,-0.002,0.0031,0.0032,0.0033,0.012,0,0,0,0,0,0,-0.0111,-0.0115,-0.0121,-0.0123,-0.0126,-0.0148,-0.0122,-0.0118,-0.0117,-0.0112,-0.0082,-0.0075,-0.0054,-0.003,-0.0026,0.0028,-0.0019,0.003,0.0032,0.0033,0.0117,0.0124,0.0131,0,0,0,0,0,-0.011,-0.0119,-0.0121,-0.0124,-0.0134,-0.015,-0.015,-0.0137,-0.0118,-0.0123,-0.0089,-0.0075,-0.0019,-0.0029,-0.0025,0.0032,0.003,0.0031,0.0033,0.0114,0.0123,0.0131,0,0,0,0,0,0,-0.0109,-0.0117,-0.0118,-0.013,-0.0143,-0.0144,-0.0149,-0.0139,-0.012,-0.0107,-0.0077,-0.0068,-0.0016,-0.0026,-0.0038,0.0047,0.0011,0.0014,0.0071,0.008,0.0087,0.0043,-0.0018,0,0,0,0,0,-0.0114,-0.0125,-0.0134,-0.0149,-0.0153,-0.0151,-0.0155,-0.0148,-0.0134,-0.0124,-0.0096,-0.0062,-0.0011,0.0005,0.0034,0.006,0.0047,0.0099,0.0106,0.0112,0.0076,0.0133,0.0142,0.0038,0.0038,0.0038,0,0,-0.0123,-0.0129,-0.0136,-0.0151,-0.0156,-0.0179,-0.0149,-0.0158,-0.0164,-0.0121,-0.0105,-0.0037,0.0001,0.0057,0.0078,0.0057,0.0133,0.0114,0.012,0.0079,0.0135,0.0146,0.0155,0.0039,0.0039,0.0039,0,0,-0.015,-0.0147,-0.0166,-0.0179,-0.0191,-0.0194,-0.0198,-0.0191,-0.0169,-0.0145,-0.0091,-0.0006,0.0035,0.0094,0.0126,0.0173,0.0175,0.0195,0.0194,0.0252,0.0261,0.0269,0.0262,0.0268,0.0193,0.0193,0.0193,0,-0.0162,-0.0186,-0.0176,-0.0202,-0.0225,-0.0205,-0.024,-0.0221,-0.0202,-0.0182,-0.0135,-0.0004,0.0055,0.0135,0.0179,0.0194,0.0197,0.0172,0.0263,0.0271,0.0277,0.0268,0.0274,0.0197,0.0197,0.0196,0.0196,0,-0.0207,-0.0227,-0.024,-0.027,-0.0293,-0.0315,-0.0306,-0.0299,-0.0251,-0.0211,-0.0108,0.0004,0.0078,0.0146,0.0189,0.0276,0.0253,0.0279,0.0248,0.0294,0.028,0.0285,0.0204,0.0202,0.0201,0.02,0,0,-0.0238,-0.0265,-0.0274,-0.0304,-0.033,-0.0358,-0.0368,-0.0366,-0.0365,-0.0251,-0.0218,-0.0032,0.006,0.0099,0.0197,0.027,0.0364,0.0298,0.0299,0.0297,0.0446,0.0409,0.041,0.0422,0.0424,0.0425,0.0417,0,-0.0281,-0.0334,-0.0347,-0.0418,-0.0446,-0.0452,-0.0471,-0.0459,-0.0408,-0.0366,-0.0192,-0.0114,0.0032,0.0097,0.0211,0.0324,0.038,0.0359,0.0392,0.0391,0.0361,0.0417,0.0429,0.0421,0.0422,0.0423,0.0423,0,-0.0328,-0.0356,-0.0424,-0.0487,-0.0504,-0.0547,-0.0591,-0.0599,-0.0531,-0.0473,-0.034,-0.0235,-0.007,0.0031,0.0254,0.0238,0.0334,0.0419,0.0422,0.0348,0.0363,0.0364,0.0432,0.0431,0.043,0.043,0.0429,0,-0.0355,-0.042,-0.0479,-0.0502,-0.0562,-0.0601,-0.063,-0.0617,-0.0618,-0.0547,-0.0513,-0.0323,-0.021,-0.004,0.0175,0.0214,0.0368,0.0437,0.0473,0.0468,0.0464,0.0455,0.054,0.054,0.054,0.054,0.054,0,-0.0394,-0.0446,-0.0494,-0.0527,-0.0616,-0.0635,-0.0699,-0.0707,-0.0681,-0.0657,-0.0546,-0.0469,-0.0215,-0.0085,0.0103,0.0298,0.0317,0.0456,0.0475,0.0498,0.0494,0.0467,0.0458,0.054,0.054,0.054,0.054,0,-0.042,-0.0447,-0.0522,-0.0592,-0.0632,-0.0688,-0.076,-0.0772,-0.0755,-0.0728,-0.0708,-0.0568,-0.0379,-0.019,0.0054,0.0197,0.0365,0.0405,0.0345,0.0363,0.0437,0.0433,0.0461,0.046,0.0459,0.0458,0.0457,0,-0.0436,-0.0472,-0.0575,-0.063,-0.0672,-0.0746,-0.0787,-0.0803,-0.0797,-0.0755,-0.0722,-0.0603,-0.0474,-0.0187,0.0022,0.0265,0.0325,0.0354,0.0477,0.0418,0.0434,0.0432,0.0429,0.0456,0.0456,0.0455,0.0455,0,-0.0469,-0.0506,-0.0562,-0.0666,-0.0736,-0.0807,-0.0849,-0.0858,-0.0836,-0.0827,-0.0715,-0.0583,-0.0404,-0.0166,-0.0033,0.0176,0.0319,0.0347,0.0352,0.0469,0.0413,0.0429,0.0427,0.0452,0.0452,0.0453,0.0453,0,-0.0494,-0.0537,-0.0606,-0.0709,-0.0787,-0.0834,-0.0864,-0.0837,-0.0839,-0.0773,-0.0726,-0.055,-0.0443,-0.0215,-0.0054,0.0097,0.0192,0.0259,0.0272,0.0277,0.0246,0.0149,0.0114,0,0,0,0,0,-0.0509,-0.0562,-0.0646,-0.0746,-0.081,-0.0859,-0.089,-0.0888,-0.0863,-0.078,-0.0755,-0.0583,-0.0339,-0.0235,-0.0079,-0.0051,0.0201,0.0132,0.0281,0.0434,0.0437,0.0432,0,0,0,0,0,0,-0.0519,-0.0594,-0.064,-0.0744,-0.081,-0.0873,-0.0889,-0.0876,-0.0819,-0.0774,-0.0636,-0.0563,-0.032,-0.0427,-0.0082,-0.0039,0.0074,0.0248,0.0251,0.0432,0.0435,0.0438,0.0434,0,0,0,0,0]}]]